Regional Weather Roundup
Issued by NWS

Home | Current Version | Previous Version | Text Only | Print | Product List | Glossary On
Versions: 1 2 3 4 5 6 7 8 9 10 11 12 13 14 15 16 17 18 19 20 21 22 23 24 25 26 27 28 29 30 31 32 33 34 35 36 37 38 39 40 41 42 43 44 45 46 47 48 49 50
000
ASUS45 KABQ 310410
RWRNM
WEATHER ROUNDUP FOR NEW MEXICO
NATIONAL WEATHER SERVICE ALBUQUERQUE NM
1000 PM MDT SAT AUG 30 2014

NOTE: "FAIR" MEANS FEW OR NO CLOUDS BELOW 12,000 FEET AGL WITH NO
       SIGNIFICANT WEATHER OR OBSTRUCTIONS TO VISION.

      THIS PRODUCT IS RELEASED AS TWO VERSIONS.  ONE VERSION NEAR
      THE TOP OF THE HOUR CONTAINING PRELIMINARY DATA FROM ALBUQUERQUE
      AND OTHER STATIONS.  A FINAL VERSION WITH ADDITIONAL DATA IS
      ISSUED ABOUT 10 MINUTES AFTER THE HOUR.

NMZ501-503-504-510>518-310500-
NORTHWEST PLATEAU/NORTHCENTRAL MOUNTAINS

CITY           SKY/WX    TMP DP  RH WIND       PRES   REMARKS
FARMINGTON     CLEAR     72  40  31 CALM      30.02R
LOS ALAMOS     PTCLDY    72  35  26 SW9       30.19S
SANTA FE       PTCLDY    69  42  37 CALM      30.12R
ANGEL FIRE     FAIR      48  38  70 CALM      30.28S

$$
NMZ402-403-502-505>509-310500-
WESTCENTRAL MOUNTAINS/SOUTHWEST MOUNTAINS

CITY           SKY/WX    TMP DP  RH WIND       PRES   REMARKS
GALLUP         PTCLDY    64  25  22 CALM      30.14R
SILVER CITY    CLEAR     70  37  30 NW10      30.12S

$$
NMZ407-409-411-412-310500-
SOUTHERN DESERTS

CITY           SKY/WX    TMP DP  RH WIND       PRES   REMARKS
LORDSBURG      FAIR      79  43  27 NW6       30.01R
DEMING         CLEAR     80  39  23 S6        30.01R
LAS CRUCES     CLEAR     83  39  20 S9        30.04R
HOLLOMAN AFB   CLEAR     79  44  29 SE8       29.99R
ALAMOGORDO     CLEAR     73  43  33 SE8       30.02R
T OR C         CLEAR     80  40  23 W7        30.03R

$$
NMZ519>523-310500-
CENTRAL VALLEYS/CENTRAL HIGHLANDS

CITY           SKY/WX    TMP DP  RH WIND       PRES   REMARKS
ALBUQUERQUE    PTCLDY    75  45  34 SE7       30.05R
DOUBLE EAGLE   CLEAR     73  43  33 S14       30.08S
MORIARTY ARPT  FAIR      64  46  50 SE8       30.14S
CLINES CORNERS PTCLDY    65  41  41 SW14      30.19S
BELEN          FAIR      77  41  27 S10       30.04R
SOCORRO        FAIR      73  48  40 N6        30.04R

$$
NMZ524>526-539-540-310500-
SOUTHCENTRAL MOUNTAINS

CITY           SKY/WX    TMP DP  RH WIND       PRES   REMARKS
RUIDOSO        CLEAR     64  41  42 SE5       30.24R

$$
NMZ527>531-310500-
NORTHEAST HIGHLANDS/NORTHEAST PLAINS

CITY           SKY/WX    TMP DP  RH WIND       PRES   REMARKS
LAS VEGAS      PTCLDY    63  38  39 S10       30.17S
RATON          MOCLDY    68  40  35 E6        30.08R
CLAYTON        PTCLDY    71  49  45 S14       30.01R

$$
NMZ532>537-310500-
EASTCENTRAL PLAINS

CITY           SKY/WX    TMP DP  RH WIND       PRES   REMARKS
TUCUMCARI      PTCLDY    82  43  25 S16       29.95R
CANNON AFB     PTCLDY    78  48  34 S15       30.03R
CLOVIS AIRPORT   N/A     77  46  33 S15       30.06R

$$
NMZ028-029-538-310500-
SOUTHEAST PLAINS

CITY           SKY/WX    TMP DP  RH WIND       PRES   REMARKS
ROSWELL        PTCLDY    80  43  26 SE8       29.98R
CARLSBAD       CLEAR     81  39  22 S9        29.97R
HOBBS          CLEAR     79  41  25 SE9       30.04R


$$



USA.gov is the U.S. government's official web portal to all federal, state and local government web resources and services.